North Vernon, Indiana, United States (47265)
Lat: 39.01N, Lon: 85.62W
Wx Zone: INZ072
Local Info
Past Weather Observations for Sunday, August 21, 2016

NOTE: This archive is for the closest National Weather Service station to North Vernon. Information may differ from the station used for current weather conditions.

Click here for Long-term Archive

Time Weather Temperature Dewpoint Humidity Pressure Winds Precip Visibility
23:53
Clear
61°F / 16°C 55°F / 13°C 83% 30.09 in
(1019 mb)
Calm - 10SM
22:53
Clear
63°F / 17°C 57°F / 14°C 83% 30.09 in
(1019 mb)
SW 3.5 mph
(SW 6 kph)
- 10SM
21:53
Clear
63°F / 17°C 57°F / 14°C 83% 30.06 in
(1018 mb)
Calm - 10SM
20:53
Clear
64°F / 18°C 57°F / 14°C 78% 30.06 in
(1018 mb)
Calm - 10SM
19:53
Clear
66°F / 19°C 57°F / 14°C 73% 30.04 in
(1017 mb)
NW 5.8 mph
(NW 9 kph)
- 10SM
18:53
Clear
72°F / 22°C 57°F / 14°C 61% 30.01 in
(1016 mb)
NW 5.8 mph
(NW 9 kph)
- 10SM
17:53
Partly Cloudy
77°F / 25°C 57°F / 14°C 51% 30.01 in
(1016 mb)
NW 10.4 mph
(NW 17 kph)
- 10SM
16:53
Partly Cloudy
79°F / 26°C 55°F / 13°C 45% 29.98 in
(1015 mb)
WNW 13.8 mph
(WNW 22 kph)
- 10SM
15:53
Partly Cloudy
79°F / 26°C 57°F / 14°C 48% 29.98 in
(1015 mb)
W 10.4 mph
(W 17 kph)
- 10SM
14:53
Mostly Cloudy
77°F / 25°C 57°F / 14°C 51% 29.98 in
(1015 mb)
NW 15 mph
(NW 24 kph)
- 10SM
13:53
Partly Cloudy
77°F / 25°C 57°F / 14°C 51% 29.98 in
(1015 mb)
W 12.7 mph
(W 20 kph)
- 10SM
12:53
Mostly Cloudy
77°F / 25°C 59°F / 15°C 54% 29.98 in
(1015 mb)
W 8.1 mph
(W 13 kph)
- 10SM
11:53
Mostly Cloudy
75°F / 24°C 61°F / 16°C 61% 29.98 in
(1015 mb)
SSW 15 mph
(SSW 24 kph)
- 10SM
10:53
Partly Cloudy
73°F / 23°C 61°F / 16°C 65% 29.95 in
(1014 mb)
SSW 10.4 mph
(SSW 17 kph)
- 10SM
09:53
Clear
72°F / 22°C 59°F / 15°C 65% 29.95 in
(1014 mb)
WNW 10.4 mph
(WNW 17 kph)
- 10SM
08:53
Clear
70°F / 21°C 61°F / 16°C 73% 29.92 in
(1013 mb)
NW 6.9 mph
(NW 11 kph)
- 10SM
07:53
Clear
68°F / 20°C 61°F / 16°C 78% 29.92 in
(1013 mb)
W 4.6 mph
(W 7 kph)
- 10SM
06:53
Clear
64°F / 18°C 61°F / 16°C 88% 29.89 in
(1012 mb)
SW 3.5 mph
(SW 6 kph)
- 10SM
05:53
Clear
64°F / 18°C 61°F / 16°C 88% 29.86 in
(1011 mb)
W 4.6 mph
(W 7 kph)
- 10SM
04:53
Clear
66°F / 19°C 63°F / 17°C 88% 29.83 in
(1010 mb)
SSW 5.8 mph
(SSW 9 kph)
- 10SM
03:53
Clear
68°F / 20°C 63°F / 17°C 83% 29.83 in
(1010 mb)
W 6.9 mph
(W 11 kph)
- 10SM
02:53
Overcast
70°F / 21°C 64°F / 18°C 83% 29.8 in
(1009 mb)
WNW 5.8 mph
(WNW 9 kph)
- 10SM
01:53
Overcast
70°F / 21°C 64°F / 18°C 83% 29.8 in
(1009 mb)
NW 5.8 mph
(NW 9 kph)
- 10SM
00:53
Overcast
72°F / 22°C 64°F / 18°C 78% 29.8 in
(1009 mb)
NW 8.1 mph
(NW 13 kph)
- 10SM
Time Weather Temperature Dewpoint Humidity Pressure Winds Precip Visibility


Weather for websites

WeatherForYou.com, LLC is not responsible for any damages or problems caused by this service. Current weather conditions are obtained from the closest station including government and personal stations which may have varying degrees of accuracy. Weather forecasts are derived from the NOAA NDFD. Like all things, this site belongs to Jesus Christ... He just trusts us to maintain it. If you have any questions or comments email webmaster@weatherforyou.com

Copyright © 2016, WeatherForYou.com LLC. All rights reserved.